Weather in Prohorovka

Russia / Belgorod Oblast     51°02′03″N   36°43′59″E
temp.,
°C
wind,
m/s
gust,
m/s
humid.,
%
clouds,
%
prec.,
mm/h
press.,
hPa
HPBL,
m
17 april, sat
sat1700:00+6sse348684 0.0 101875
03:00+5sse2392100 0.3 101853
06:00+5se2290100 0.5 101835
09:00+8s337754 0.6 1018568
12:00+11sw445645 1.0 10181451
15:00+12ssw544498 1.2 10172129
18:00+9sw66606 0.2 10181042
21:00+6sw237999 0.2 101981
18 april, sun
sun1800:00+5sw3691100 0.1 1019300
03:00+5ssw468899 0.1 1019414
06:00+5ssw359097 0.2 1018177
09:00+7sw4572100 0.3 1019624
12:00+9ssw5562100 0.5 10191245
15:00+9sw4568100 0.6 10191030
18:00+7nnw3282100 0.8 1018256
21:00+6ne3394100 7.4 1018138
19 april, mon
mon1900:00+7s4792100 2.7 1017640
03:00+6sw1194100 4.4 101740
06:00+6ne1294100 0.7 101780
09:00+9n118199 1.1 1017293
12:00+12wsw246360 1.4 10161008
15:00+13s2255100 2.9 10161132
18:00+13wsw125998 1.7 1015386
21:00+9ene3376100 1.9 101641
20 april, tue
tue2000:00+8e6118788 0.4 1015339
03:00+6e71393100 0.4 1015380
06:00+6ene71494100 0.1 1013420
09:00+7ene91586100 0.1 1010670
12:00+7ne91692100 1.7 1007788
15:00+6ene101894100 13.4 1002872
18:00+7ene101895100 9.3 995784
21:00+10sse7149296 12.4 994687
21 april, wed
wed2100:00+9sse91589100 0.2 996927
03:00+7sse81491100 0.3 996903
06:00+3sw81396100 0.9 1001713
09:00+3wsw91496100 1.1 1005966
12:00+6wsw81386100 0.1 10101120
15:00+8sw81176100 0.3 10131333
18:00+7wsw6977100 0.1 10161333
21:00+6ssw488281 0.1 1018282